SCP
1 1 1 1 1 0 0 0 0 0 0 0 0 0 0 0 0 0 0 0 0 0 0 0 0 0 0 0 0 0 0 0 0 0 0 0 0 0 0 0 0 0 0
1 1 1 1 1 0 0 0 0 0 0 0 0 0 0 0 0 0 0 0 0 0 0 0 0 0 0 0 0 0 0 0 0 0 0 0 0 0 0 0 0 0 0
2 1 1 1 1 0 0 0 0 0 0 0 0 0 0 0 0 0 0 0 0 0 0 0 0 0 0 0 0 0 0 0 0 0 0 0 0 0 0 0 0 0 0
2 2 1 1 1 0 0 0 0 0 0 0 0 0 0 0 0 0 0 0 0 0 0 0 0 0 0 0 0 0 0 0 0 0 0 0 0 0 0 0 0 0 0
2 2 1 1 1 1 1 0 0 0 0 0 0 0 0 0 0 0 0 0 0 0 0 0 0 0 0 0 0 0 0 0 0 0 0 0 0 0 0 0 0 0 0
1 1 1 1 1 1 1 0 0 0 0 0 0 0 0 0 0 0 0 0 0 0 0 0 0 0 0 0 0 0 0 0 0 0 0 0 0 0 0 0 0 0 0
1 1 1 1 1 1 1 0 0 0 0 0 0 0 0 0 0 0 0 0 0 0 0 0 0 0 0 0 0 0 0 0 0 0 0 0 0 0 0 0 0 0 0
1 1 1 1 1 1 1 1 0 0 0 0 0 0 0 0 0 0 0 0 0 0 0 0 0 0 0 0 0 0 0 0 0 0 0 0 0 0 0 0 0 0 0
1 1 1 1 1 1 1 1 0 0 0 0 0 0 0 0 0 0 0 0 0 0 0 0 0 0 0 0 0 0 0 0 0 0 0 0 0 0 0 0 0 0 0
1 1 1 1 1 1 1 1 1 0 0 0 0 0 0 0 0 0 0 0 0 0 0 0 0 0 0 0 0 0 0 0 0 0 0 0 0 0 0 0 0 0 0
1 1 1 1 1 1 1 1 0 0 0 0 0 0 0 0 0 0 0 0 0 0 0 0 0 0 0 0 0 0 0 0 0 0 0 0 0 0 0 0 0 0 0
1 1 1 1 1 1 1 1 0 0 0 0 0 0 0 0 0 0 0 0 0 0 0 0 0 0 0 0 0 0 0 0 0 0 0 0 0 0 0 0 0 0 0
1 1 1 1 1 1 0 0 0 0 0 0 0 0 0 0 0 0 0 0 0 0 0 0 0 0 0 0 0 0 0 0 0 0 0 0 0 0 0 0 0 0 0
1 1 1 1 1 0 0 0 0 0 0 0 0 0 0 0 0 0 0 0 0 0 0 0 0 0 0 0 0 0 0 0 0 0 0 0 0 0 0 0 0 0 0
1 1 1 1 0 0 0 0 0 0 0 0 0 0 0 0 0 0 0 0 0 0 0 0 0 0 0 0 0 0 0 0 0 0 0 0 0 0 0 0 0 0 0
1 1 1 1 0 0 0 0 0 0 0 0 0 0 0 0 0 0 0 0 0 0 0 0 0 0 0 0 0 0 0 0 0 0 0 0 0 0 0 0 0 0 0
1 1 1 1 0 0 0 0 0 0 0 0 0 0 0 0 0 0 0 0 0 0 0 0 0 0 0 0 0 0 0 0 0 0 0 0 0 0 0 0 0 0 0
1 1 1 1 0 0 0 0 0 0 0 0 0 0 0 0 0 0 0 0 0 0 0 0 0 0 0 0 0 0 0 0 0 0 0 0 0 0 0 0 0 0 0
1 1 1 1 0 0 0 0 0 0 0 0 0 0 0 0 0 0 0 0 0 0 0 0 0 0 0 0 0 0 0 0 0 0 0 0 0 0 0 0 0 0 0
1 0 0 1 0 0 0 0 0 0 0 0 0 0 0 0 0 0 0 0 0 0 0 0 0 0 0 0 0 0 0 0 0 0 0 0 0 0 0 0 0 0 0
1 0 0 0 0 0 0 0 0 0 0 0 0 0 0 0 0 0 0 0 0 0 0 0 0 0 0 0 0 0 0 0 0 0 0 0 0 0 0 0 0 0 0
0 0 0 0 0 0 0 0 0 0 0 0 0 0 0 0 0 0 0 0 0 0 0 0 0 0 0 0 0 0 0 0 0 0 0 0 0 0 0 0 0 0 0
0 0 0 0 0 0 0 0 0 0 0 0 0 0 0 0 0 0 0 0 0 0 0 0 0 0 0 0 0 0 0 0 0 0 0 0 0 0 0 0 0 0 0
0 0 0 0 0 0 0 0 0 0 0 0 0 0 0 0 0 0 0 0 0 0 0 0 0 0 0 0 0 0 0 0 0 0 0 0 0 0 0 0 0 0 0
0 0 0 0 0 0 0 0 0 0 0 0 0 0 0 0 0 0 0 0 0 0 0 0 0 0 0 0 0 0 0 0 0 0 0 0 0 0 0 0 0 0 0
0 0 0 0 0 0 0 0 0 0 0 0 0 0 0 0 0 0 0 0 0 0 0 0 0 0 0 0 0 0 0 0 0 0 0 0 0 0 0 0 0 0 0
Wind_Speed
9 8 8 7 6 5 4 4 4 4 4 3 3 3 3 3 3 3 3 3 3 3 3 3 3 3 2 2 1 1 2 2 1 2 2 3 3 4 4 4 4 4 6
9 8 7 7 7 6 5 5 4 4 4 4 4 3 3 3 3 3 3 3 2 3 3 2 3 2 2 2 2 2 2 2 1 1 1 2 3 4 4 4 4 4 4
10 9 8 8 7 6 6 5 4 4 4 4 4 4 3 3 3 2 2 2 2 2 2 2 2 2 2 2 1 1 1 1 1 0 2 2 2 3 3 3 4 3 4
10 9 9 8 7 6 6 5 5 4 5 4 4 3 3 3 2 2 2 2 2 2 2 2 2 3 3 2 1 2 1 1 1 1 1 1 2 3 2 3 2 2 3
11 10 9 8 7 6 6 5 5 4 4 4 4 4 3 2 1 1 2 2 2 2 2 3 4 5 7 5 3 2 1 1 0 1 1 1 2 2 3 3 3 3 2
11 10 9 8 7 6 6 6 6 5 5 4 4 4 3 2 4 1 1 2 2 2 2 2 3 3 5 4 5 5 4 3 2 1 1 2 2 3 3 3 3 3 3
11 10 10 9 8 7 7 7 6 6 6 5 4 4 4 5 5 3 1 1 1 1 1 2 2 2 1 3 4 3 3 3 4 4 2 3 3 3 3 3 3 4 4
10 10 10 9 9 8 7 7 7 6 6 5 4 4 3 4 5 4 2 2 2 2 1 1 1 2 2 2 1 1 2 3 3 2 3 3 4 4 4 4 4 4 3
10 10 10 10 9 8 8 8 7 6 6 5 5 4 4 5 6 4 4 2 2 2 1 0 0 1 4 3 1 0 1 2 4 3 4 3 4 4 5 3 3 3 3
10 9 9 9 9 9 8 7 6 6 6 5 4 4 4 4 6 5 5 3 3 2 2 2 2 1 2 3 2 1 1 1 1 1 1 2 2 0 3 3 4 4 4
9 8 8 9 8 8 7 6 6 6 6 5 5 4 4 4 6 5 4 2 2 2 2 1 2 3 1 2 4 2 3 3 2 2 2 2 2 2 2 2 3 4 4
7 8 8 8 7 7 7 6 6 6 6 6 5 5 3 4 4 5 4 2 2 2 1 1 2 3 1 2 2 2 2 4 2 2 2 2 2 2 3 3 4 4 4
8 8 7 8 6 7 7 7 6 6 5 5 5 4 4 3 4 5 5 3 2 2 0 3 2 2 3 2 2 2 4 3 2 3 3 2 3 3 3 3 4 4 5
8 8 7 7 7 6 5 5 5 5 5 5 4 4 4 3 3 4 4 4 4 3 2 3 4 3 3 1 2 3 3 2 3 3 3 3 3 3 4 4 4 4 5
8 8 7 6 6 6 5 3 4 4 3 4 4 4 4 4 3 2 3 3 2 1 1 2 3 2 2 2 2 2 2 2 3 3 3 4 4 4 4 4 5 5 6
7 7 6 5 5 5 5 5 3 2 3 2 1 1 2 2 5 5 3 2 2 3 3 3 3 3 3 2 3 3 3 3 3 4 4 4 5 5 5 5 5 5 6
6 6 5 5 5 5 5 5 5 4 4 4 3 2 1 4 6 5 4 4 5 6 4 3 3 3 3 3 3 3 3 3 3 4 4 5 5 5 5 5 5 6 6
6 5 5 5 5 5 5 5 4 4 4 4 4 4 4 5 6 6 6 5 4 5 4 3 3 3 3 3 3 3 3 3 4 4 5 5 5 5 6 6 6 7 7
5 4 4 4 4 5 5 5 4 4 4 3 3 4 5 5 6 6 6 4 3 3 3 3 3 3 3 3 3 3 4 4 4 4 4 5 5 5 6 6 6 7 8
4 4 4 4 4 5 5 4 4 4 4 3 3 3 4 4 3 4 4 4 3 3 3 3 3 3 3 3 3 3 4 4 4 4 4 5 5 5 6 8 7 7 7
4 5 6 4 4 4 4 5 4 4 4 3 3 3 4 4 4 4 4 4 4 4 4 3 3 3 3 3 3 4 5 4 4 4 5 5 5 6 6 7 7 8 8
4 4 4 4 3 3 3 4 4 4 4 4 3 4 6 4 3 3 3 3 4 3 3 3 3 3 3 3 4 4 5 5 4 5 5 6 6 6 7 7 7 8 8
3 4 4 4 4 4 4 4 4 4 4 4 4 3 4 4 3 3 4 3 3 3 3 3 4 3 3 3 4 4 5 4 4 5 6 6 6 6 7 8 9 10 9
3 3 4 3 3 3 3 3 3 4 4 4 4 3 3 4 4 4 4 3 3 3 3 3 4 5 5 4 4 4 4 4 5 5 7 7 7 7 7 8 9 10 9
2 3 3 3 3 3 3 3 3 4 4 3 3 3 4 4 4 4 4 3 4 4 4 4 3 4 6 6 5 4 3 4 5 6 6 7 8 8 8 9 9 9 9
2 2 2 2 2 2 3 3 3 3 3 3 3 3 3 3 3 3 3 3 3 3 4 4 4 5 6 5 5 4 3 5 6 7 7 7 7 7 8 8 10 9 10
Wind_Direction
179 176 172 171 171 171 165 159 160 152 148 143 134 124 112 108 107 104 93 90 81 85 78 66 62 44 41 43 28 23 20 14 48 57 42 30 21 20 22 16 22 27 53
179 176 175 168 172 176 169 166 164 156 153 149 140 134 124 117 113 109 101 96 83 72 68 64 67 73 47 30 21 28 35 10 18 47 39 22 20 22 16 11 22 23 30
177 176 177 174 174 175 170 164 166 162 158 154 147 142 137 136 129 121 114 101 85 70 68 62 56 62 62 57 24 32 39 40 22 21 33 24 11 16 6 10 29 16 7
174 179 182 179 175 175 168 167 171 165 163 160 152 147 144 145 146 141 128 115 103 84 63 48 39 30 22 30 32 44 44 56 47 36 29 25 21 11 350 356 1 11 2
176 181 182 178 175 173 167 170 167 161 164 159 153 150 143 144 132 154 155 146 127 109 97 76 58 47 32 21 11 16 26 16 38 22 13 360 4 356 355 344 343 341 0
180 180 175 175 172 173 170 169 163 161 159 154 156 152 150 134 93 38 292 161 152 136 119 105 102 105 91 77 54 34 10 354 351 352 335 337 349 352 350 327 333 332 335
182 176 175 174 173 175 170 167 164 165 159 156 160 157 160 126 128 137 271 217 156 130 127 115 95 91 176 113 115 133 79 38 350 329 331 344 343 348 330 324 325 324 329
182 177 174 175 174 172 171 169 172 170 161 166 168 164 150 137 145 153 190 203 156 148 145 136 134 110 61 16 83 67 46 40 16 335 348 354 351 340 323 318 314 304 301
182 181 177 176 174 173 174 174 172 170 166 169 168 168 166 156 154 167 209 186 175 164 153 103 0 107 74 330 279 56 60 75 89 62 20 13 15 353 322 300 304 298 308
183 182 177 175 175 178 178 176 169 169 170 168 167 179 176 164 151 175 223 202 190 173 157 145 76 45 84 307 271 271 297 352 342 172 201 207 240 192 283 296 307 305 310
177 175 173 173 176 175 171 170 169 168 168 171 169 177 178 166 160 176 222 234 206 198 188 179 116 120 131 308 299 320 351 321 299 300 310 318 310 319 319 317 321 311 307
165 169 170 170 168 166 164 167 169 167 171 175 178 175 178 167 167 173 191 240 288 217 213 190 113 129 158 283 297 27 327 288 278 285 292 302 308 314 316 319 314 308 303
162 165 165 163 162 167 165 165 167 173 180 183 183 182 179 172 158 166 180 190 234 239 169 64 95 166 200 205 174 238 253 260 274 277 286 298 307 311 308 300 294 295 294
161 162 163 162 161 164 166 170 172 179 184 185 185 186 180 178 176 174 180 179 182 197 180 149 170 202 233 242 213 224 248 285 289 284 290 294 295 289 287 294 295 294 289
158 156 159 158 157 162 162 167 180 175 180 185 185 185 185 190 173 161 190 194 202 184 183 201 213 212 224 228 240 255 266 260 263 277 282 285 286 285 287 289 290 289 289
156 156 155 154 154 158 159 150 96 96 109 114 89 193 175 125 129 145 161 151 151 168 205 217 225 236 244 252 258 260 261 268 278 281 280 282 285 287 288 287 284 285 290
159 156 156 158 157 159 163 165 159 140 126 128 131 152 161 141 151 164 168 167 175 185 216 229 234 243 252 259 265 268 272 276 279 277 278 282 285 288 289 290 290 290 290
160 154 158 163 165 166 169 173 173 171 168 164 155 155 155 150 156 161 162 167 182 202 232 239 243 249 257 262 267 272 276 276 274 276 279 282 284 286 288 290 291 294 295
157 158 164 163 165 167 169 174 175 176 173 165 158 153 160 162 162 163 173 203 212 217 233 243 250 252 258 264 270 273 275 276 278 280 281 283 284 285 286 287 290 292 288
156 147 159 163 164 166 168 169 172 176 175 174 178 166 158 173 177 175 197 223 232 234 237 244 250 258 260 262 265 268 271 272 276 279 284 286 286 286 287 288 290 291 290
155 153 163 167 168 171 172 173 177 178 180 184 186 162 174 193 194 196 203 219 234 240 241 247 251 253 257 261 262 265 271 276 279 284 287 289 290 289 288 288 288 287 288
164 163 170 174 170 175 177 177 179 180 182 187 179 159 175 202 203 208 215 225 235 245 249 251 253 254 254 256 261 267 271 277 282 286 290 291 290 288 288 288 289 291 291
168 167 167 171 172 168 182 186 184 186 187 189 185 181 185 209 217 224 229 233 237 244 246 247 254 256 258 261 264 266 271 279 289 292 290 287 286 286 286 286 287 290 290
168 170 170 170 173 180 188 193 193 194 197 198 197 198 202 213 225 231 234 232 235 240 244 249 254 259 263 267 267 269 277 294 294 284 282 283 285 285 285 285 286 288 290
164 168 173 176 180 187 195 201 202 202 205 208 210 212 215 220 227 232 233 232 237 243 248 251 253 258 262 265 271 281 312 301 289 292 285 279 279 280 282 283 285 287 288
160 170 176 179 186 193 199 203 207 211 212 213 218 222 223 226 232 235 234 234 241 247 250 252 257 264 269 268 274 286 280 274 274 281 282 277 276 278 283 283 287 288 288